Simultaneous Nadir Overpasses (SNOs) Predictions

Prediction of SNOs between GOES-16 and NOAA-19 Satellite Orbit:

Table of predicted SNOs for the next 14.0 days since TLE Epoch: 12/21/2024
Index Date Time (GOES-16) GOES-16 Lat,Lon NOAA-19 Lat,Lon Distance(km) Time Diff (sec)
1 12/21/2024 14:45:22 -0.01, -75.21 0.48, -77.41 251.49 80
2 12/22/2024 14:30:12 -0.01, -75.21 -0.18, -74.37 95.83 80
3 12/23/2024 14:17:42 -0.01, -75.22 -0.90, -71.34 443.19 80
4 12/25/2024 02:51:57 0.01, -75.20 -0.84, -78.93 425.03 80
5 12/26/2024 02:39:28 0.02, -75.21 -0.12, -75.89 77.51 80
6 12/27/2024 02:24:17 0.01, -75.22 0.55, -72.85 270.23 80
7 12/29/2024 14:43:04 -0.01, -75.29 0.47, -77.33 233.28 80
8 12/30/2024 14:33:14 -0.00, -75.30 -0.21, -74.29 114.78 80
9 12/31/2024 14:20:44 -0.00, -75.31 -0.95, -71.26 462.85 80
10 01/02/2025 02:52:19 -0.00, -75.30 -0.84, -78.83 404.41 80
11 01/03/2025 02:39:49 -0.00, -75.31 -0.10, -75.81 56.02 80
